Location: Wheeling
(40.0640°N, 80.7210°W)
Time: 20:31:00
(UTC-05:00)

KAITUO 1B - Pass Details

Date: 25 October 2021
Orbit: 489 x 506 km, 97.4° (Epoch: 07 December)

Event Time Altitude Azimuth Distance (km) Brightness Sun altitude
Rises 20:17:00 0° 217° (SW) 2,553 ? -21.3°
Drops below altitude 10° 20:21:24 10° 268° (W) 1,681 ? -22.2°
Maximum altitude 20:21:27 10° 269° (W) 1,681 ? -22.2°
Sets 20:25:56 0° 322° (NW) 2,571 ? -23.0°
